Location: Lafig�re
(44.4503°N, 4.0357°E)
Time: 14:56:11
(UTC+00:00)

Vanguard 2 Rocket - Pass Details

Date: 03 February 2021
Orbit: 554 x 3325 km, 32.9° (Epoch: 06 March)

Event Time Altitude Azimuth Distance (km) Brightness Sun altitude
Rises 12:07:08 0° 239° (WSW) 7,259 11.9 29.1°
Reaches altitude 10° 12:12:15 10° 234° (SW) 6,280 11.8 29.1°
Maximum altitude 12:30:55 50° 168° (SSE) 3,451 11.2 28.7°
Drops below altitude 10° 12:44:20 10° 99° (E) 4,649 10.6 28.3°
Sets 12:47:27 0° 94° (E) 5,327 10.7 28.1°
